[[{"header":{"parameterUnit":"m.s-1","parameterCategory":1,"la1":30.2991,"la2":30.254,"lo1":-89.0895,"lo2":-89.0444,"dy":0.0017,"dx":0.0017,"nx":28,"ny":28,"refTime":"2024-04-14T03:00:00:Z","depth":0,"parameterNumber":2,"parameterNumberName":"U-component_of_WINDS"},"data":[0,0,0,0,0,0,0,0,0,0,0,0,0,0,0,0,0,0,0,0,0,0,0,0,0,0,0,0,0,0,0,0,0,0,0,0,0,0,0,0,0,0,0,0,0,0,0,0,0,0,0,0,0,0,0,0,0,0,-0.2283,-0.2283,0,-0.2302,-0.2303,-0.2303,-0.2325,-0.2325,-0.2326,-0.2326,-0.2346,-0.2346,-0.2346,0,0,0,0,0,0,0,0,0,0,0,0,0,-0.2264,-0.2264,-0.2283,-0.2283,-0.2283,-0.2302,-0.2303,-0.2303,-0.2325,-0.2325,-0.2326,-0.2326,-0.2346,-0.2346,-0.2346,0,0,0,0,0,0,0,0,0,0,0,0,0,-0.2277,-0.2264,-0.2283,-0.2297,-0.2298,-0.2302,-0.2303,-0.2303,-0.2325,-0.2325,-0.2326,-0.2326,-0.2346,-0.2346,-0.2346,-0.2338,0,0,-0.2347,-0.2347,0,0,0,0,0,0,0,0,-0.2276,-0.2277,-0.2294,-0.2296,-0.2297,-0.2312,-0.2303,-0.2315,-0.2325,-0.2315,-0.2326,-0.2326,-0.2334,-0.2335,-0.2338,-0.2339,-0.234,-0.2347,-0.2347,-0.2348,-0.2348,0,0,0,0,0,0,0,-0.2275,-0.2277,-0.2291,-0.2294,-0.2296,-0.2302,-0.2304,-0.2306,-0.2321,-0.2315,-0.2317,-0.2319,-0.2335,-0.2337,-0.2338,-0.234,-0.2347,-0.2347,-0.2348,-0.2348,-0.2336,-0.2336,0,0,0,0,0,0,-0.2272,-0.2276,-0.229,-0.2291,-0.2288,-0.2302,-0.2304,-0.2307,-0.2321,-0.2324,-0.2319,-0.232,-0.2337,-0.2338,-0.2339,-0.2331,-0.2348,-0.2348,-0.2348,-0.2337,-0.2336,-0.2335,0,0,0,0,0,0,-0.2272,-0.2273,-0.2289,-0.2284,-0.2286,-0.2301,-0.2304,-0.2307,-0.2309,-0.2324,-0.2327,-0.2319,-0.2337,-0.2339,-0.2338,-0.2332,-0.2348,-0.2348,-0.2337,-0.2336,-0.2336,-0.2314,0,0,0,0,0,0,-0.2271,-0.2273,-0.227,-0.2284,-0.2287,-0.2288,-0.2303,-0.2307,-0.231,-0.2312,-0.2324,-0.2327,-0.2338,-0.2338,-0.2339,-0.2333,-0.2349,-0.2338,-0.2337,-0.2336,-0.2316,-0.2313,-0.231,0,0,0,0,0,-0.227,-0.2263,-0.227,-0.2272,-0.2284,-0.2288,-0.2289,-0.2302,-0.2309,-0.2307,-0.2316,-0.2326,-0.2332,-0.2337,-0.2339,-0.2333,-0.2338,-0.2337,-0.2336,-0.2317,-0.2313,-0.231,0,0,0,0,0,0,-0.2249,-0.2266,-0.2273,-0.227,-0.2277,-0.2291,-0.2288,-0.2298,-0.2303,-0.2305,-0.232,-0.2322,-0.232,-0.2326,-0.2332,-0.2326,-0.2337,-0.2336,-0.2322,-0.2319,-0.2316,-0.2315,-0.2349,0,0,0,0,0,-0.2244,-0.2246,-0.226,-0.2256,-0.226,-0.2273,-0.2276,-0.2285,-0.2292,-0.2296,-0.2305,-0.2312,-0.2315,-0.2317,-0.2321,-0.2316,-0.2319,-0.2313,-0.231,-0.2308,-0.2307,-0.2305,-0.2302,-0.2332,-0.2332,-0.2332,0,0,-0.2234,-0.2243,-0.2243,-0.2252,-0.2259,-0.2261,-0.2276,-0.2277,-0.2278,-0.2296,-0.2296,-0.2303,-0.2312,-0.2309,-0.2308,-0.2314,-0.23,-0.2307,-0.2305,-0.2305,-0.2303,-0.23,-0.2298,-0.2331,-0.2331,-0.2331,0,0,-0.2216,-0.2223,-0.2221,-0.2227,-0.2236,-0.2245,-0.2245,-0.2257,-0.2262,-0.2263,-0.2276,-0.2277,-0.2283,-0.2289,-0.2293,-0.2276,-0.2286,-0.2277,-0.2264,-0.2261,-0.2259,-0.2257,-0.225,-0.2248,-0.2276,-0.2276,-0.2276,0,-0.2202,-0.2205,-0.2218,-0.2218,-0.2222,-0.2238,-0.2235,-0.224,-0.2251,-0.2253,-0.2259,-0.2266,-0.2274,-0.2272,-0.2268,-0.2271,-0.227,-0.2276,-0.2258,-0.2256,-0.2254,-0.2249,-0.2246,-0.2275,-0.2275,-0.2275,-0.2275,0,-0.2187,-0.2189,-0.2186,-0.2195,-0.2198,-0.2197,-0.221,-0.2211,-0.222,-0.2228,-0.2228,-0.2237,-0.2243,-0.2243,-0.2252,-0.2243,-0.2246,-0.2255,-0.2267,-0.225,-0.2245,-0.2243,-0.2273,-0.2273,-0.2274,-0.2274,0,0,-0.2157,-0.2173,-0.2172,-0.2176,-0.2188,-0.2189,-0.2188,-0.2194,-0.2195,-0.2201,-0.2201,-0.2205,-0.2213,-0.2217,-0.2227,-0.2224,-0.221,-0.2233,-0.2234,-0.2228,-0.2201,-0.2194,-0.2191,-0.2217,-0.2216,-0.2216,-0.22,0,-0.2141,-0.2141,-0.2152,-0.2149,-0.2151,-0.2165,-0.2165,-0.2171,-0.2179,-0.2181,-0.219,-0.2192,-0.2203,-0.2205,-0.2204,-0.2212,-0.2205,-0.2214,-0.2216,-0.2216,-0.2214,-0.2189,-0.2182,-0.2166,-0.2198,-0.2198,-0.2197,0,-0.2123,-0.2128,-0.2124,-0.2135,-0.2137,-0.2136,-0.2142,-0.2144,-0.2152,-0.2157,-0.2161,-0.2172,-0.2171,-0.2182,-0.2182,-0.2188,-0.2189,-0.2194,-0.2193,-0.2194,-0.2206,-0.2189,-0.2161,-0.2159,-0.2194,-0.2195,-0.2195,0,-0.2101,-0.2107,-0.2105,-0.2109,-0.2122,-0.2121,-0.2126,-0.2134,-0.2137,-0.2142,-0.2144,-0.2149,-0.2151,-0.2155,-0.2166,-0.2173,-0.2164,-0.2176,-0.2169,-0.2168,-0.2166,-0.2166,-0.2139,-0.2167,-0.2167,-0.2167,-0.2168,0,-0.2082,-0.2079,-0.2096,-0.2095,-0.2092,-0.2105,-0.2102,-0.2109,-0.2116,-0.2117,-0.213,-0.213,-0.2145,-0.2146,-0.2155,-0.2153,-0.2154,-0.2159,-0.2161,-0.2158,-0.2157,-0.2159,-0.2161,-0.2167,-0.2167,-0.2167,-0.2167,0,-0.2057,-0.2068,-0.2068,-0.208,-0.2083,-0.208,-0.2091,-0.209,-0.2098,-0.2099,-0.2099,-0.2112,-0.2115,-0.2126,-0.2132,-0.2137,-0.2133,-0.2137,-0.213,-0.2131,-0.2123,-0.2124,-0.2096,-0.2093,-0.2124,-0.2123,-0.2123,0,-0.2045,-0.2043,-0.2055,-0.2056,-0.2061,-0.2063,-0.2065,-0.2078,-0.208,-0.2088,-0.2087,-0.209,-0.2094,-0.2097,-0.2107,-0.2111,-0.2116,-0.2106,-0.2116,-0.2113,-0.2115,-0.2115,-0.2115,-0.2103,-0.2103,-0.2103,-0.2102,0,-0.2021,-0.2027,-0.203,-0.2034,-0.2037,-0.2041,-0.2047,-0.2047,-0.2061,-0.2062,-0.2065,-0.2068,-0.2073,-0.2077,-0.2082,-0.2087,-0.2097,-0.2099,-0.2097,-0.2094,-0.209,-0.2092,-0.2124,-0.2099,-0.21,-0.21,-0.21,-0.21,-0.2002,-0.2001,-0.2009,-0.2012,-0.2017,-0.2021,-0.2022,-0.2029,-0.2032,-0.2037,-0.2044,-0.2046,-0.2053,-0.2062,-0.2066,-0.2067,-0.2073,-0.2071,-0.207,-0.2069,-0.2068,-0.2089,-0.2068,-0.2068,-0.2069,-0.2069,-0.2069,0,-0.198,-0.1985,-0.1988,-0.1994,-0.1996,-0.2005,-0.2011,-0.2012,-0.2013,-0.2019,-0.2022,-0.2025,-0.2028,-0.2038,-0.2042,-0.2041,-0.2045,-0.2041,-0.2042,-0.2043,-0.2063,-0.2063,-0.2038,-0.2038,-0.2038,-0.2038,-0.2038,-0.2038,-0.1968,-0.1967,-0.1973,-0.1974,-0.1979,-0.1981,-0.1983,-0.1987,-0.1992,-0.1995,-0.1997,-0.2003,-0.201,-0.2015,-0.2018,-0.202,-0.2021,-0.2016,-0.202,-0.2038,-0.2041,-0.2044,-0.2045,-0.2016,-0.2016,-0.2,-0.2,-0.1999]},{"header":{"parameterUnit":"m.s-1","parameterCategory":1,"la1":30.2991,"la2":30.254,"lo1":-89.0895,"lo2":-89.0444,"dy":0.0017,"dx":0.0017,"nx":28,"ny":28,"refTime":"2024-04-14T03:00:00:Z","depth":0,"parameterNumber":3,"parameterNumberName":"V-component_of_WINDS"},"data":[0,0,0,0,0,0,0,0,0,0,0,0,0,0,0,0,0,0,0,0,0,0,0,0,0,0,0,0,0,0,0,0,0,0,0,0,0,0,0,0,0,0,0,0,0,0,0,0,0,0,0,0,0,0,0,0,0,0,3.5116,3.5117,0,3.5124,3.5124,3.5124,3.5046,3.5044,3.5042,3.504,3.5047,3.5049,3.5051,0,0,0,0,0,0,0,0,0,0,0,0,0,3.5033,3.5035,3.5116,3.5117,3.5117,3.5124,3.5124,3.5124,3.5047,3.5044,3.5041,3.5039,3.5046,3.5049,3.5052,0,0,0,0,0,0,0,0,0,0,0,0,0,3.5058,3.5036,3.5116,3.5079,3.5076,3.5124,3.5124,3.5124,3.5047,3.5044,3.5041,3.5038,3.5046,3.5049,3.5052,3.5136,0,0,3.5062,3.5063,0,0,0,0,0,0,0,0,3.5057,3.5061,3.5084,3.5082,3.5078,3.5081,3.5097,3.5128,3.5048,3.5058,3.504,3.5036,3.5061,3.5063,3.5071,3.5137,3.5137,3.5062,3.5064,3.5066,3.5067,0,0,0,0,0,0,0,3.5055,3.506,3.5119,3.5085,3.5081,3.5061,3.5061,3.5103,3.5077,3.5057,3.5051,3.5053,3.5059,3.5068,3.5071,3.5137,3.5062,3.5065,3.5067,3.5068,3.527,3.5274,0,0,0,0,0,0,3.5059,3.506,3.5119,3.512,3.5059,3.5065,3.5065,3.5083,3.5077,3.5073,3.5056,3.5049,3.5064,3.5067,3.5071,3.5168,3.5066,3.5069,3.5071,3.5267,3.5271,3.5275,0,0,0,0,0,0,3.5057,3.5065,3.5119,3.5088,3.5093,3.507,3.5091,3.5085,3.5094,3.5076,3.5071,3.5071,3.5062,3.5066,3.512,3.5167,3.507,3.5073,3.5263,3.5268,3.5273,3.5364,0,0,0,0,0,0,3.5055,3.5065,3.5097,3.5089,3.5095,3.5169,3.5094,3.5087,3.51,3.5092,3.5088,3.5085,3.506,3.5116,3.5124,3.517,3.5076,3.5259,3.5265,3.5271,3.5357,3.5372,3.5385,0,0,0,0,0,3.5053,3.5123,3.5099,3.5107,3.5136,3.5172,3.5175,3.5145,3.5105,3.5137,3.5124,3.5085,3.5161,3.5122,3.513,3.5178,3.5256,3.5263,3.5271,3.5351,3.5369,3.5384,0,0,0,0,0,0,3.5138,3.5121,3.5095,3.5165,3.5171,3.5159,3.5199,3.5166,3.5183,3.5174,3.5136,3.5136,3.5196,3.5192,3.5149,3.5259,3.5201,3.5211,3.5259,3.5276,3.529,3.5289,3.5078,0,0,0,0,0,3.5165,3.5196,3.518,3.5243,3.5247,3.5223,3.5237,3.5213,3.5217,3.5219,3.5211,3.5216,3.5241,3.5258,3.528,3.5356,3.5353,3.5393,3.5406,3.5418,3.5427,3.5465,3.5482,3.53,3.53,3.53,0,0,3.5221,3.5216,3.5238,3.526,3.5262,3.5294,3.5225,3.5263,3.5286,3.5225,3.5275,3.5269,3.5272,3.5338,3.5366,3.5336,3.5476,3.5428,3.5437,3.544,3.5475,3.5492,3.5508,3.5305,3.5304,3.5303,0,0,3.5339,3.5339,3.5391,3.5394,3.5396,3.5379,3.5391,3.5384,3.5378,3.5428,3.5382,3.5409,3.5453,3.5456,3.5464,3.5582,3.5546,3.559,3.5662,3.57,3.5714,3.5727,3.5768,3.5784,3.5599,3.5599,3.5599,0,3.5409,3.5457,3.5422,3.5463,3.5473,3.5418,3.547,3.5474,3.5484,3.5492,3.5459,3.5511,3.551,3.5574,3.5603,3.5611,3.5623,3.559,3.5715,3.5727,3.5739,3.5778,3.5793,3.5604,3.5604,3.5603,3.5602,0,3.5541,3.5575,3.5616,3.5626,3.5641,3.5688,3.5659,3.5679,3.5653,3.5639,3.5689,3.5685,3.5705,3.5718,3.5694,3.5779,3.576,3.5722,3.5663,3.5762,3.5798,3.5812,3.5612,3.561,3.5608,3.5607,0,0,3.5716,3.5704,3.572,3.5723,3.5721,3.5746,3.5789,3.5807,3.5824,3.5832,3.5866,3.5904,3.5868,3.5877,3.5852,3.5885,3.5977,3.5842,3.5842,3.5867,3.607,3.6099,3.6117,3.5953,3.5956,3.5958,3.6069,0,3.5831,3.5903,3.5872,3.5948,3.5977,3.5924,3.5961,3.5964,3.5951,3.5974,3.596,3.5987,3.5938,3.5942,3.5973,3.596,3.6018,3.5951,3.5984,3.5986,3.5985,3.6135,3.6166,3.6272,3.6083,3.6086,3.6087,0,3.5975,3.5988,3.6066,3.6057,3.6068,3.6102,3.6115,3.6138,3.6139,3.6127,3.6136,3.6104,3.6144,3.6085,3.614,3.6095,3.6107,3.6102,3.6106,3.6108,3.6043,3.6141,3.6305,3.632,3.6109,3.6107,3.6106,0,3.6094,3.6131,3.6182,3.6186,3.6176,3.6201,3.6198,3.6196,3.6208,3.622,3.6227,3.6244,3.6253,3.6266,3.6239,3.6199,3.6297,3.6236,3.6288,3.6289,3.6311,3.6311,3.6479,3.6319,3.6319,3.6319,3.6319,0,3.6226,3.6275,3.6234,3.6266,3.632,3.6283,3.6337,3.6328,3.6326,3.6354,3.631,3.6337,3.6298,3.6322,3.63,3.6348,3.6353,3.6345,3.6338,3.6349,3.635,3.6356,3.6348,3.6323,3.6322,3.6321,3.6321,0,3.6368,3.6342,3.6394,3.638,3.6378,3.6418,3.6405,3.6433,3.6417,3.6453,3.646,3.6434,3.6459,3.6433,3.6456,3.6442,3.6506,3.6489,3.6506,3.6501,3.6554,3.655,3.6733,3.6754,3.6581,3.6583,3.6584,0,3.6454,3.649,3.6479,3.6495,3.6494,3.652,3.6532,3.6497,3.6511,3.6514,3.6541,3.6563,3.6578,3.662,3.6604,3.6621,3.6604,3.6667,3.6607,3.6616,3.6605,3.6603,3.6606,3.668,3.6682,3.6683,3.6685,0,3.6608,3.6593,3.6612,3.6627,3.6642,3.6652,3.6658,3.6673,3.6636,3.6654,3.6679,3.6691,3.6714,3.6735,3.6748,3.6744,3.6709,3.6704,3.6716,3.6728,3.6736,3.6731,3.6539,3.67,3.6698,3.6697,3.6696,3.6696,3.6724,3.6754,3.675,3.6772,3.6773,3.6779,3.6805,3.6791,3.6811,3.6826,3.6804,3.6835,3.6833,3.6845,3.6846,3.6869,3.6842,3.6861,3.6866,3.6871,3.6879,3.6732,3.6871,3.6871,3.687,3.687,3.687,0,3.6876,3.6871,3.6891,3.6901,3.6918,3.6882,3.6886,3.6903,3.693,3.6931,3.6946,3.6974,3.6994,3.6979,3.6995,3.7017,3.7001,3.7022,3.7021,3.702,3.6902,3.6889,3.7035,3.7035,3.7035,3.7035,3.7035,3.7035,3.6958,3.7005,3.6989,3.7036,3.703,3.7059,3.7065,3.707,3.707,3.7103,3.7119,3.7109,3.7103,3.7118,3.7135,3.713,3.7138,3.7165,3.7155,3.7045,3.7029,3.7013,3.7001,3.7168,3.7168,3.727,3.7271,3.7272]}]]